Starlink 35632

operational
NORAD ID: 66129 Int'l Des: 2025-237 Owner: SPXS Country: US Constellation: starlink
LEOCIRCULAR

About Starlink 35632

Description loading...

Live Position

Loading 3D Globe...

Upcoming Passes

Altitude History

Altitude vs Time

uPlot chart will show altitude changes over time

Two-Line Element Set

1 66129C 25237R 25298.72131944 -.01186300 00000+0 -19219-2 0 2986
2 66129 53.1548 319.2599 0000863 67.2716 119.2281 16.03890165 10
Epoch: Oct 25, 2025 • Age: 141 hours

Current Status

Altitude 307.3 km
Velocity 7.72 km/s
Sub-Earth Point -51.83°S, 128.95°W
Launch Date Oct 22, 2025
Age 8 days
Type internet

Technical Details

Classification Payload
Mass 575.00 kg
Dry Mass 530.00 kg
Total Mass 575.00 kg
Length 0.30 m
Diameter 4.10 m
Span 29.00 m
Shape Box + pan
Manufacturer SPXS
Bus Type Starlink V2MO
Phase Status In Orbit
Owner/State SPXS/US

Large Constellations

Loading constellations...